Погода в Омолоне

Погода в Омолоне : погода сейчас, прогноз погоды и архив. Всё, что Вы хотите узнать о погоде в Омолоне!

Поиск расширенной информации на нашем сайте:

Другие новости

Новости СМИ2

Главная страница сайта

Новости сайта

02.10.2013

Напоминаем, что на нашем новом сайте вы можете получить высокодетализированные прогнозы погоды по пунктам России, СНГ и мира (включающие важные для авиации метеовеличины, такие как направление и скорость ветра, видимость, явления погоды, количество и форма облачности, нижняя и верхняя граница облачности), а также ознакомиться с разнообразными материалами по авиационной метеорологии и подборкой полезных ссылок на эту тему.

Сайт Метеоцентр.Азия посвящён разработке технологий оптимизации авиаметеорологического обслуживания, включая проектирование и перспективное создание нескольких автоматизированных авиаметеорологических систем:
- система выпуска высокодетальных прогностических карт явлений погоды для нижнего воздушного пространства по России и ближнему зарубежью;
- система верификации прогнозов TAF (выпускаемых синоптиками официальных АМСГ РФ и ближнего зарубежья) и AUTOTAF (выпускаемых сайтом Метеоцентр.Азия) - выявление ошибок, онлайн-сопоставление с фактической погодой METAR, автоматическое внесение коррективов в прогнозы при резком отклонении фактической погоды от прогноза, подсчёт оправдываемости прогнозов по элементам и в целом;
- система обработки, анализа и отображения авиаметеорологической информации для применения провайдерами метеорологической информации.

Рекомендуем: Свадебный стилист москва профессиональный свадебный стилист.

Погода в Омолоне - сегодня

Время (UTC), дата Ветер
(°,м/с) 
Видим.   Явления Облачность Т
(°С)
Тd
(°С)
f(%) Тe
(°С)
Pmin
(гПа)
dP
(гПа)
Po
(мм)
O2
(г/м3)
Тmin Tmax R s Состояние
почвы
03 21.01.17 тихо () {01}  6000 м  дымка  ясно 
-45.5 -50.5 57 -46  1031.7  -0.7  744  362           
06 21.01.17 тихо () {01}  4600 м  дымка  ясно 
-47.2 -52.2 56 -47  1031.5  -0.4  744  365           
09 21.01.17 тихо () {00}  4500 м  дымка  ясно 
-47.8 -53.2 54 -48  1031.5  -0.1  744  365    -43.8       
12 21.01.17 тихо () {00}  4300 м  дымка  ясно 
-48.6 -55.1 47 -49  1031.3  -0.4  743  367           
15 21.01.17 тихо () {01}  4400 м  дымка  ясно 
-48.4 -54 53 -48  1030.1  -1  743  366           
18 21.01.17 тихо () {01}  4300 м  дымка  ясно 
-48.6 -55.1 47 -49  1029.5  -0.8  742  366           
21 21.01.17 тихо () {01}  4600 м  дымка  ясно 
-49.2 -55.1 50 -49  1028.7  -0.7  742  367  -49.5      46  равномерный
сухой снег
100% 
00 22.01.17 тихо () {00}  4800 м  дымка  ясно 
-47.7 -53.2 54 -48  1027.9  -0.6  741  364  -49.7         
03 22.01.17 тихо () {01}  6000 м  дымка  3/0 верхняя 
[Ci fib]
-45.9 -51.3 54 -46  1026.3  -1.3  740  361           
06 22.01.17 тихо () {01}  5000 м  дымка  ясно 
-46.7 -52.2 53 -47  1025.6  -0.7  740  362           
09 22.01.17 тихо () {00}  4900 м  дымка  ясно 600 м 
-47.7 -53.2 54 -48  1025.2  -0.6  739  363    -45.1       
12 22.01.17 тихо () {01}  4600 м  дымка  ясно 
-48.5 -54 53 -49  1024.9  -0.5  739  364           
15 22.01.17 тихо () {01}  4900 м  дымка  ясно 
-48.4 -54 53 -48  1023.7  -1  738  364           
18 22.01.17 тихо () {01}  4800 м  дымка  ясно 
-48.3 -54 52 -48  1022.7  -0.9  737  363           
21 22.01.17 тихо () {01}  4700 м  дымка  ясно 
-48.6 -55.1 47 -49  1023.4  0.4  738  364  -49.3      46  равномерный
сухой снег
100% 
00 23.01.17 тихо () {01}  4500 м  дымка  4/0 верхняя 
[Ci fib]
-47.2 -52.2 56 -47  1022.3  -0.6  737  361           
03 23.01.17 тихо () {01}  8000 м  дымка  3/0 верхняя 
[Ci fib]
-43.1 -48.3 57 -43  1020.6  -1  737  355           
06 23.01.17 тихо () {01}  6000 м  дымка  3/0 верхняя 
[Ci fib]
-46.1 -51.3 56 -46  1021  -0.1  736  359           
09 23.01.17 тихо () {01}  5000 м  дымка  3/0 верхняя 
[Ci fib]
-47.5 -53.2 52 -48  1021.3  -0.1  736  361    -43.1       
12 23.01.17 тихо () {01}  4500 м  дымка  ясно 
-47.9 -53.2 54 -48  1020.9  -0.4  736  362           
15 23.01.17 тихо () {02}  4500 м  дымка  ясно 
-48.3 -54 52 -48  1020.4  -0.5  736  362           
18 23.01.17 тихо () {02}  4500 м  дымка  ясно 
-49.5 -55.1 52 -50  1019.9  -0.6  735  364           
21 23.01.17 тихо () {01}  4200 м  дымка  ясно 
-49.5 -55.1 52 -50  1019.6  -0.3  735  364  -50.4      46  равномерный
сухой снег
100% 
00 24.01.17 тихо () {02}  5000 м  дымка  3/0 средняя, верхняя 
[Ac trans|Ci fib]
-47.8 -53.2 54 -48  1018.7  -0.6  734  361           
03 24.01.17 тихо () {02}  8000 м  дымка  8/0 верхняя 
[Ci fib]
-42.5 -46.9 62 -43  1016.6  -1.2  734  352           
Время (UTC), дата Ветер
(°,м/с) 
Видим.   Явления Облачность Т
(°С)
Тd
(°С)
f(%) Тe
(°С)
Pmin
(гПа)
dP
(гПа)
Po
(мм)
O2
(г/м3)
Тmin Tmax R s Состояние
почвы

Для получения пояснительной информации подведите курсор к названию столбца.

ПОГОДА в Омолоне - архив

Всё, что Вы хотите узнать о погоде в Омолоне - удобно и подробно!

Выберите нужную дату (начиная с 1 января 2015* года) и нажмите кнопку "Найти".
Будут отображены архивные сводки погоды по пункту Омолон, начиная с указанной даты.


Отображать данные в формате CSV (для использования в таблицах Excel)


Внимание! Наш архив погоды предназначен исключительно для личного некоммерческого использования в познавательных целях. Если Вам необходимы официальные справки о состоянии погоды (для производственных, юридических, коммерческих и т.п. целей), обращайтесь в органы Росгидромета.

*Примечание: данная дата относится к архиву по метеостанциям СССР (Россия, СНГ, Балтия).
Архив по метеостанциям Зарубежной Европы и Азии (кроме Китая) хранится 10 дней, по другим регионам земного шара (Китай, Африка, Америка, Австралия, Океания) - 1 день.

Омолон - район местоположения метеостанции


Название, широта, долгота, высота метеостанции:
Омолон 65.2°ш. 160.5°д. 264 м над ур. моря [Российская Федерация]

Дополнительная информация

В oтличие oт бoльшинства пoгoдных сайтoв мы публикуем пoдрoбную метеoинфoрмацию в детальнoм прoфессиoнальнoм фoрмате.

Характеристики температуры и влажнoсти вoздуха измеряются на высoте 2 м в тени вдали oт зданий и деревьев.
Скoрoсть ветра измеряется на высoте 10 м (на урoвне рoста челoвека скoрoсть ветра ниже в 1.5-2 раза). Если метеoстанция нахoдится в гoрoде или в лесу, тo скoрoсть ветра занижена на 2-4 м/с пo сравнению с oткрытым местoм. Скoрoсть ветра над акватoриями крупных рек и oзёр, а также на вершинах хoлмoв на 2-5 м/с выше, чем в oбычных услoвиях.
Атмoсфернoе давление в разных тoчках местнoсти мoжет значительнo oтличаться oт давления на метеoстанции, в зависимoсти oт услoвий рельефа (при пoдъёме на 10 м давление пoнижается примернo на 1 мм рт.ст.).